FCYISA CYAM-KAVL

Flight info

Callsign FCYISA
Flight time 1h 48m
Altitude 38000
Route CATGA DCT TVC J548 ADALE/N0462F370 J34 CRL/N0465F380 J43 FLM/N0463F370 J43 VXV DCT AUBRY DCT PUPDG DCT RIGEL
Aircraft B738/M-SDE2E3FGHIRWXY/LB1

Departure

Time 2026-05-09 04:51
Airport Sault Ste Marie Airport (CYAM)

Arrival

Time 2026-05-09 06:39
Airport Asheville Regional Airport (KAVL)
Time Latitude Longitude Altitude Speed Heading
2026-05-09 04:38 46.48372 -84.49819 604 ft 0 kts 215°
2026-05-09 04:48 46.48355 -84.49836 611 ft 7 kts 212°
2026-05-09 04:48 46.48300 -84.49845 603 ft 9 kts 147°
2026-05-09 04:48 46.48251 -84.49795 602 ft 9 kts 160°
2026-05-09 04:49 46.48192 -84.49792 601 ft 9 kts 192°
2026-05-09 04:49 46.48126 -84.49837 601 ft 12 kts 231°
2026-05-09 04:49 46.48120 -84.49899 602 ft 0 kts 282°
2026-05-09 04:50 46.48121 -84.49906 602 ft 5 kts 282°
2026-05-09 04:50 46.48152 -84.50076 614 ft 36 kts 285°
2026-05-09 04:50 46.48290 -84.50721 614 ft 103 kts 288°
2026-05-09 04:51 46.48578 -84.52042 628 ft 168 kts 282°
2026-05-09 04:51 46.48945 -84.53861 1025 ft 200 kts 282°
2026-05-09 04:51 46.49416 -84.55892 1676 ft 222 kts 285°
2026-05-09 04:51 46.49959 -84.58019 2172 ft 227 kts 282°
2026-05-09 04:52 46.50048 -84.60228 2745 ft 217 kts 250°
2026-05-09 04:52 46.49268 -84.62012 3297 ft 212 kts 213°
2026-05-09 04:52 46.47868 -84.62548 3845 ft 216 kts 173°
2026-05-09 04:52 46.46490 -84.61596 4413 ft 227 kts 149°
2026-05-09 04:53 46.45049 -84.60718 4958 ft 225 kts 179°
2026-05-09 04:53 46.43529 -84.61026 5547 ft 221 kts 200°
2026-05-09 04:53 46.42052 -84.61696 6128 ft 224 kts 202°
2026-05-09 04:53 46.40585 -84.62470 6682 ft 225 kts 205°
2026-05-09 04:54 46.39115 -84.63295 7249 ft 227 kts 205°
2026-05-09 04:54 46.37635 -84.64130 7811 ft 228 kts 206°
2026-05-09 04:54 46.36152 -84.64963 8380 ft 229 kts 207°
2026-05-09 04:54 46.34661 -84.65796 8963 ft 230 kts 207°
2026-05-09 04:55 46.33151 -84.66637 9560 ft 235 kts 207°
2026-05-09 04:55 46.31609 -84.67494 10122 ft 239 kts 207°
2026-05-09 04:55 46.30042 -84.68361 10679 ft 243 kts 207°
2026-05-09 04:55 46.28416 -84.69262 10972 ft 261 kts 207°
2026-05-09 04:56 46.26652 -84.70242 11157 ft 282 kts 207°
2026-05-09 04:56 46.24749 -84.71295 11333 ft 303 kts 206°
2026-05-09 04:56 46.22711 -84.72416 11493 ft 324 kts 206°
2026-05-09 04:56 46.20542 -84.73606 11641 ft 343 kts 206°
2026-05-09 04:57 46.18256 -84.74853 11911 ft 357 kts 205°
2026-05-09 04:57 46.15903 -84.76130 12419 ft 364 kts 205°
2026-05-09 04:57 46.13512 -84.77423 13039 ft 368 kts 205°
2026-05-09 04:57 46.11104 -84.78724 13639 ft 372 kts 205°
2026-05-09 04:58 46.08671 -84.80040 14176 ft 375 kts 205°
2026-05-09 04:58 46.06224 -84.81364 14770 ft 377 kts 205°
2026-05-09 04:58 46.03762 -84.82695 15329 ft 379 kts 205°
2026-05-09 04:58 46.01282 -84.84037 15878 ft 382 kts 205°
2026-05-09 04:59 45.98780 -84.85390 16424 ft 385 kts 206°
2026-05-09 04:59 45.96264 -84.86753 16975 ft 388 kts 205°
2026-05-09 04:59 45.93729 -84.88121 17506 ft 391 kts 205°
2026-05-09 04:59 45.91171 -84.89500 18042 ft 394 kts 205°
2026-05-09 05:00 45.88596 -84.90887 18490 ft 397 kts 205°
2026-05-09 05:00 45.86003 -84.92282 18939 ft 400 kts 205°
2026-05-09 05:00 45.83388 -84.93688 19329 ft 403 kts 205°
2026-05-09 05:00 45.80745 -84.95109 19752 ft 407 kts 205°
2026-05-09 05:01 45.78068 -84.96327 20173 ft 414 kts 197°
2026-05-09 05:01 45.75169 -84.96796 20603 ft 424 kts 185°
2026-05-09 05:01 45.72203 -84.96530 21017 ft 431 kts 178°
2026-05-09 05:01 45.69205 -84.96001 21409 ft 435 kts 178°
2026-05-09 05:02 45.66196 -84.95472 21765 ft 438 kts 178°
2026-05-09 05:02 45.63160 -84.94947 22141 ft 441 kts 178°
2026-05-09 05:02 45.60108 -84.94431 22517 ft 444 kts 178°
2026-05-09 05:02 45.57071 -84.93926 22895 ft 446 kts 178°
2026-05-09 05:03 45.53977 -84.93420 23264 ft 449 kts 178°
2026-05-09 05:03 45.50869 -84.92915 23619 ft 450 kts 178°
2026-05-09 05:03 45.47752 -84.92411 23961 ft 451 kts 178°
2026-05-09 05:03 45.44588 -84.91902 24252 ft 453 kts 178°
2026-05-09 05:04 45.41447 -84.91397 24553 ft 455 kts 178°
2026-05-09 05:04 45.38290 -84.90891 24870 ft 457 kts 178°
2026-05-09 05:04 45.35173 -84.90391 25186 ft 458 kts 178°
2026-05-09 05:04 45.31960 -84.89876 25493 ft 460 kts 178°
2026-05-09 05:05 45.28802 -84.89370 25785 ft 461 kts 178°
2026-05-09 05:05 45.25609 -84.88859 26050 ft 463 kts 178°
2026-05-09 05:05 45.22404 -84.88347 26349 ft 464 kts 178°
2026-05-09 05:05 45.19192 -84.87834 26620 ft 465 kts 178°
2026-05-09 05:06 45.15970 -84.87321 26889 ft 467 kts 178°
2026-05-09 05:06 45.12728 -84.86804 27148 ft 469 kts 178°
2026-05-09 05:06 45.09485 -84.86288 27518 ft 468 kts 178°
2026-05-09 05:06 45.06263 -84.85774 27946 ft 465 kts 179°
2026-05-09 05:07 45.03069 -84.85263 28514 ft 460 kts 179°
2026-05-09 05:07 44.99900 -84.84759 28933 ft 458 kts 179°
2026-05-09 05:07 44.96729 -84.84257 29232 ft 459 kts 179°
2026-05-09 05:07 44.93552 -84.83756 29531 ft 459 kts 179°
2026-05-09 05:08 44.90387 -84.83257 29895 ft 457 kts 179°
2026-05-09 05:08 44.87233 -84.82759 30209 ft 455 kts 180°
2026-05-09 05:08 44.84085 -84.82262 30503 ft 455 kts 180°
2026-05-09 05:08 44.80943 -84.81768 30740 ft 455 kts 180°
2026-05-09 05:09 44.77794 -84.81274 30957 ft 456 kts 180°
2026-05-09 05:09 44.74638 -84.80779 31218 ft 455 kts 180°
2026-05-09 05:09 44.71490 -84.80285 31485 ft 455 kts 180°
2026-05-09 05:09 44.68346 -84.79792 31718 ft 455 kts 180°
2026-05-09 05:10 44.65199 -84.79299 31930 ft 455 kts 180°
2026-05-09 05:10 44.62048 -84.78806 32167 ft 455 kts 180°
2026-05-09 05:10 44.58902 -84.78315 32416 ft 455 kts 180°
2026-05-09 05:10 44.55753 -84.77823 32644 ft 455 kts 180°
2026-05-09 05:11 44.52601 -84.77331 32866 ft 455 kts 180°
2026-05-09 05:11 44.49449 -84.76841 33066 ft 456 kts 181°
2026-05-09 05:11 44.46300 -84.76350 33290 ft 456 kts 181°
2026-05-09 05:11 44.43150 -84.75860 33505 ft 456 kts 181°
2026-05-09 05:12 44.39997 -84.75371 33712 ft 456 kts 181°
2026-05-09 05:12 44.33665 -84.74392 33756 ft 459 kts 181°
2026-05-09 05:13 44.27345 -84.73413 33757 ft 455 kts 182°
2026-05-09 05:13 44.21058 -84.72440 33769 ft 454 kts 182°
2026-05-09 05:14 44.14792 -84.71473 33776 ft 452 kts 182°
2026-05-09 05:14 44.08535 -84.70513 33765 ft 452 kts 182°
2026-05-09 05:15 44.02273 -84.69554 33771 ft 453 kts 182°
2026-05-09 05:15 43.96035 -84.68601 33776 ft 454 kts 182°
2026-05-09 05:16 43.89732 -84.67640 33743 ft 456 kts 182°
2026-05-09 05:16 43.83426 -84.66678 33771 ft 457 kts 182°
2026-05-09 05:17 43.77087 -84.65711 33784 ft 458 kts 182°
2026-05-09 05:17 43.70738 -84.64750 33779 ft 460 kts 182°
2026-05-09 05:18 43.64376 -84.63787 33770 ft 460 kts 183°
2026-05-09 05:18 43.58015 -84.62824 33789 ft 459 kts 183°
2026-05-09 05:19 43.51662 -84.61865 33790 ft 459 kts 183°
2026-05-09 05:19 43.45325 -84.60910 33785 ft 456 kts 183°
2026-05-09 05:20 43.39021 -84.59963 33782 ft 454 kts 183°
2026-05-09 05:20 43.32751 -84.59024 33784 ft 453 kts 183°
2026-05-09 05:21 43.27555 -84.58246 33767 ft 450 kts 184°
2026-05-09 05:21 43.21349 -84.57318 33785 ft 447 kts 184°
2026-05-09 05:22 43.15171 -84.56398 33791 ft 445 kts 184°
2026-05-09 05:22 43.09027 -84.55486 33778 ft 443 kts 184°
2026-05-09 05:23 43.02914 -84.54578 33798 ft 441 kts 185°
2026-05-09 05:23 42.96842 -84.53680 33818 ft 439 kts 185°
2026-05-09 05:24 42.90773 -84.52784 33822 ft 438 kts 185°
2026-05-09 05:24 42.84767 -84.51898 33811 ft 435 kts 186°
2026-05-09 05:25 42.78712 -84.51007 33815 ft 434 kts 186°
2026-05-09 05:25 42.69758 -84.49693 33816 ft 433 kts 186°
2026-05-09 05:26 42.63773 -84.48818 33814 ft 432 kts 186°
2026-05-09 05:26 42.57796 -84.47945 33815 ft 432 kts 186°
2026-05-09 05:27 42.51813 -84.47073 33819 ft 432 kts 186°
2026-05-09 05:27 42.45832 -84.46205 33807 ft 432 kts 187°
2026-05-09 05:28 42.39860 -84.45337 33837 ft 432 kts 187°
2026-05-09 05:28 42.33878 -84.44467 33837 ft 432 kts 187°
2026-05-09 05:29 42.27899 -84.43600 33844 ft 431 kts 187°
2026-05-09 05:29 42.21940 -84.42736 33835 ft 430 kts 187°
2026-05-09 05:30 42.15991 -84.41879 33832 ft 429 kts 187°
2026-05-09 05:30 42.10052 -84.41024 33833 ft 429 kts 187°
2026-05-09 05:31 42.04121 -84.40171 33807 ft 427 kts 188°
2026-05-09 05:31 41.98218 -84.39323 33833 ft 426 kts 188°
2026-05-09 05:32 41.92327 -84.38481 33836 ft 425 kts 188°
2026-05-09 05:32 41.86446 -84.37641 33840 ft 425 kts 188°
2026-05-09 05:33 41.80574 -84.36804 33841 ft 424 kts 188°
2026-05-09 05:33 41.74710 -84.35971 33847 ft 424 kts 188°
2026-05-09 05:34 41.68843 -84.35138 33847 ft 424 kts 188°
2026-05-09 05:34 41.62963 -84.34305 33802 ft 425 kts 188°
2026-05-09 05:35 41.57078 -84.33473 33842 ft 426 kts 188°
2026-05-09 05:35 41.51172 -84.32640 33852 ft 428 kts 188°
2026-05-09 05:36 41.45235 -84.31803 33860 ft 430 kts 188°
2026-05-09 05:36 41.39282 -84.30966 33847 ft 431 kts 187°
2026-05-09 05:37 41.33304 -84.30125 33854 ft 432 kts 187°
2026-05-09 05:37 41.27351 -84.29289 33862 ft 433 kts 187°
2026-05-09 05:38 41.21342 -84.28456 33864 ft 433 kts 187°
2026-05-09 05:38 41.15346 -84.27612 33867 ft 433 kts 187°
2026-05-09 05:39 41.09351 -84.26771 33873 ft 433 kts 187°
2026-05-09 05:39 41.03353 -84.25934 33874 ft 433 kts 187°
2026-05-09 05:40 40.97355 -84.25101 33853 ft 433 kts 186°
2026-05-09 05:40 40.91357 -84.24269 33869 ft 434 kts 186°
2026-05-09 05:41 40.85357 -84.23438 33879 ft 434 kts 186°
2026-05-09 05:41 40.79345 -84.22607 33876 ft 435 kts 186°
2026-05-09 05:42 40.73321 -84.21777 33863 ft 435 kts 186°
2026-05-09 05:42 40.67283 -84.20946 33869 ft 436 kts 186°
2026-05-09 05:43 40.61229 -84.20114 33884 ft 438 kts 186°
2026-05-09 05:43 40.55159 -84.19281 33882 ft 439 kts 186°
2026-05-09 05:44 40.49072 -84.18447 33881 ft 441 kts 186°
2026-05-09 05:44 40.42965 -84.17611 33877 ft 441 kts 186°
2026-05-09 05:45 40.36859 -84.16776 33882 ft 441 kts 186°
2026-05-09 05:45 40.30755 -84.15943 33850 ft 441 kts 186°
2026-05-09 05:46 40.24659 -84.15114 33881 ft 440 kts 186°
2026-05-09 05:46 40.18558 -84.14287 33896 ft 441 kts 186°
2026-05-09 05:47 40.12439 -84.13460 33901 ft 443 kts 186°
2026-05-09 05:47 40.06330 -84.12634 33908 ft 443 kts 186°
2026-05-09 05:48 40.00184 -84.11804 33910 ft 445 kts 186°
2026-05-09 05:48 39.94019 -84.10973 33916 ft 446 kts 186°
2026-05-09 05:49 39.87839 -84.10141 33845 ft 446 kts 185°
2026-05-09 05:49 39.81681 -84.09311 33885 ft 444 kts 185°
2026-05-09 05:50 39.75552 -84.08487 33894 ft 441 kts 185°
2026-05-09 05:50 39.69453 -84.07670 33897 ft 439 kts 185°
2026-05-09 05:51 39.63392 -84.06860 33888 ft 436 kts 185°
2026-05-09 05:51 39.57368 -84.06057 33901 ft 434 kts 185°
2026-05-09 05:52 39.51410 -84.05265 33910 ft 433 kts 185°
2026-05-09 05:52 39.45426 -84.04472 33911 ft 432 kts 185°
2026-05-09 05:53 39.39447 -84.03681 33911 ft 432 kts 186°
2026-05-09 05:53 39.33457 -84.02891 33929 ft 434 kts 186°
2026-05-09 05:54 39.27425 -84.02096 33929 ft 437 kts 185°
2026-05-09 05:54 39.21351 -84.01296 33933 ft 440 kts 185°
2026-05-09 05:55 39.15243 -84.00491 33917 ft 442 kts 186°
2026-05-09 05:55 39.09105 -83.99683 33923 ft 444 kts 186°
2026-05-09 05:56 39.02953 -83.98874 33921 ft 445 kts 186°
2026-05-09 05:56 38.96783 -83.98064 33917 ft 445 kts 186°
2026-05-09 05:57 38.90635 -83.97256 33911 ft 443 kts 186°
2026-05-09 05:57 38.84517 -83.96455 33922 ft 441 kts 187°
2026-05-09 05:58 38.78443 -83.95660 33917 ft 434 kts 187°
2026-05-09 05:58 38.72489 -83.94878 33895 ft 428 kts 187°
2026-05-09 05:59 38.66583 -83.94114 33918 ft 425 kts 187°
2026-05-09 05:59 38.60710 -83.93356 33917 ft 423 kts 187°
2026-05-09 06:00 38.54872 -83.92602 33925 ft 421 kts 187°
2026-05-09 06:00 38.50035 -83.91977 33913 ft 419 kts 187°
2026-05-09 06:01 38.44249 -83.91231 33921 ft 417 kts 187°
2026-05-09 06:01 38.38476 -83.90486 33917 ft 416 kts 187°
2026-05-09 06:02 38.32731 -83.89748 33926 ft 414 kts 187°
2026-05-09 06:02 38.26989 -83.89011 33925 ft 414 kts 187°
2026-05-09 06:03 38.21261 -83.88277 33929 ft 413 kts 187°
2026-05-09 06:03 38.15580 -83.87550 33930 ft 412 kts 187°
2026-05-09 06:04 38.09883 -83.86821 33937 ft 411 kts 187°
2026-05-09 06:04 38.04192 -83.86094 33937 ft 410 kts 187°
2026-05-09 06:05 37.98514 -83.85370 33928 ft 409 kts 187°
2026-05-09 06:05 37.92858 -83.84650 33912 ft 408 kts 187°
2026-05-09 06:06 37.87224 -83.83937 33903 ft 406 kts 188°
2026-05-09 06:06 37.81608 -83.83226 33908 ft 405 kts 188°
2026-05-09 06:07 37.76002 -83.82513 33887 ft 405 kts 187°
2026-05-09 06:07 37.70401 -83.81803 33911 ft 404 kts 187°
2026-05-09 06:08 37.64816 -83.81099 33921 ft 403 kts 188°
2026-05-09 06:08 37.59223 -83.80394 33937 ft 403 kts 188°
2026-05-09 06:09 37.53628 -83.79688 33880 ft 405 kts 187°
2026-05-09 06:09 37.48036 -83.78986 33921 ft 403 kts 188°
2026-05-09 06:10 37.42443 -83.78285 33931 ft 404 kts 187°
2026-05-09 06:10 37.36858 -83.77585 33938 ft 403 kts 187°
2026-05-09 06:11 37.31276 -83.76883 33937 ft 403 kts 188°
2026-05-09 06:11 37.25704 -83.76185 33898 ft 401 kts 188°
2026-05-09 06:12 37.20197 -83.75502 33923 ft 400 kts 188°
2026-05-09 06:12 37.14664 -83.74813 33946 ft 400 kts 188°
2026-05-09 06:13 37.09265 -83.74141 33940 ft 400 kts 188°
2026-05-09 06:13 37.03701 -83.73452 33746 ft 404 kts 188°
2026-05-09 06:14 37.00872 -83.73108 33464 ft 411 kts 188°
2026-05-09 06:14 36.98011 -83.72761 33215 ft 416 kts 188°
2026-05-09 06:14 36.95106 -83.72407 32978 ft 422 kts 187°
2026-05-09 06:14 36.92166 -83.72045 32725 ft 427 kts 187°
2026-05-09 06:15 36.89187 -83.71674 32477 ft 433 kts 187°
2026-05-09 06:15 36.86170 -83.71300 32226 ft 438 kts 187°
2026-05-09 06:15 36.83277 -83.70942 31993 ft 442 kts 186°
2026-05-09 06:15 36.80325 -83.70577 31694 ft 446 kts 187°
2026-05-09 06:16 36.77133 -83.70182 31437 ft 448 kts 186°
2026-05-09 06:16 36.74026 -83.69797 31203 ft 448 kts 186°
2026-05-09 06:16 36.70919 -83.69407 30966 ft 449 kts 186°
2026-05-09 06:16 36.67848 -83.69022 30717 ft 450 kts 186°
2026-05-09 06:17 36.64723 -83.68636 30472 ft 451 kts 186°
2026-05-09 06:17 36.61598 -83.68252 30241 ft 452 kts 186°
2026-05-09 06:17 36.58465 -83.67867 29984 ft 453 kts 186°
2026-05-09 06:17 36.55306 -83.67484 29249 ft 461 kts 186°
2026-05-09 06:18 36.52146 -83.67094 28662 ft 450 kts 185°
2026-05-09 06:18 36.49073 -83.66706 28063 ft 439 kts 185°
2026-05-09 06:18 36.46061 -83.66328 27483 ft 430 kts 185°
2026-05-09 06:18 36.43108 -83.65959 26911 ft 421 kts 185°
2026-05-09 06:19 36.40219 -83.65604 26361 ft 414 kts 185°
2026-05-09 06:19 36.37378 -83.65259 25821 ft 407 kts 185°
2026-05-09 06:19 36.34579 -83.64920 25284 ft 401 kts 184°
2026-05-09 06:19 36.31823 -83.64587 24710 ft 395 kts 185°
2026-05-09 06:20 36.29102 -83.64258 24205 ft 390 kts 184°
2026-05-09 06:20 36.26418 -83.63935 23704 ft 386 kts 184°
2026-05-09 06:20 36.23753 -83.63613 23150 ft 382 kts 183°
2026-05-09 06:20 36.21114 -83.63294 22570 ft 378 kts 183°
2026-05-09 06:21 36.18509 -83.62979 21988 ft 375 kts 183°
2026-05-09 06:21 36.15925 -83.62666 21434 ft 371 kts 183°
2026-05-09 06:21 36.13366 -83.62358 20881 ft 368 kts 182°
2026-05-09 06:21 36.10830 -83.62051 20344 ft 365 kts 182°
2026-05-09 06:22 36.08312 -83.61746 19814 ft 362 kts 182°
2026-05-09 06:22 36.05821 -83.61445 19270 ft 359 kts 181°
2026-05-09 06:22 36.03343 -83.61146 18766 ft 356 kts 181°
2026-05-09 06:22 36.00886 -83.60849 18245 ft 353 kts 181°
2026-05-09 06:23 35.98450 -83.60555 17674 ft 350 kts 181°
2026-05-09 06:23 35.96030 -83.60263 17095 ft 348 kts 181°
2026-05-09 06:23 35.93626 -83.59973 16532 ft 345 kts 180°
2026-05-09 06:23 35.91245 -83.59685 15979 ft 343 kts 180°
2026-05-09 06:24 35.88921 -83.58969 15400 ft 353 kts 159°
2026-05-09 06:24 35.86949 -83.57131 14884 ft 363 kts 135°
2026-05-09 06:24 35.85636 -83.54461 14365 ft 369 kts 112°
2026-05-09 06:24 35.85009 -83.51401 13888 ft 368 kts 104°
2026-05-09 06:25 35.84507 -83.48298 13316 ft 367 kts 103°
2026-05-09 06:25 35.84029 -83.45218 12745 ft 365 kts 103°
2026-05-09 06:25 35.83556 -83.42194 12181 ft 363 kts 103°
2026-05-09 06:25 35.83062 -83.39117 11636 ft 361 kts 103°
2026-05-09 06:26 35.82575 -83.36138 11185 ft 356 kts 104°
2026-05-09 06:26 35.82083 -83.33170 11038 ft 341 kts 104°
2026-05-09 06:26 35.81617 -83.30376 10988 ft 325 kts 104°
2026-05-09 06:26 35.81177 -83.27756 10972 ft 308 kts 104°
2026-05-09 06:27 35.80754 -83.25243 10964 ft 291 kts 104°
2026-05-09 06:27 35.80356 -83.22876 10978 ft 273 kts 104°
2026-05-09 06:27 35.79976 -83.20639 10975 ft 265 kts 105°
2026-05-09 06:27 35.79599 -83.18426 10989 ft 264 kts 105°
2026-05-09 06:28 35.79211 -83.16156 10741 ft 269 kts 105°
2026-05-09 06:28 35.78828 -83.13901 10516 ft 266 kts 105°
2026-05-09 06:28 35.78458 -83.11720 10260 ft 261 kts 105°
2026-05-09 06:28 35.78088 -83.09550 10028 ft 256 kts 104°
2026-05-09 06:29 35.77726 -83.07421 9767 ft 252 kts 104°
2026-05-09 06:29 35.77273 -83.05366 9493 ft 245 kts 117°
2026-05-09 06:29 35.76502 -83.03542 9215 ft 237 kts 123°
2026-05-09 06:29 35.75734 -83.01769 8970 ft 233 kts 120°
2026-05-09 06:30 35.75053 -82.99977 8697 ft 230 kts 118°
2026-05-09 06:30 35.74384 -82.98177 8271 ft 234 kts 118°
2026-05-09 06:30 35.73693 -82.96336 7823 ft 239 kts 118°
2026-05-09 06:30 35.72988 -82.94469 7410 ft 242 kts 117°
2026-05-09 06:31 35.72261 -82.92582 6990 ft 246 kts 118°
2026-05-09 06:31 35.71518 -82.90672 6577 ft 249 kts 118°
2026-05-09 06:31 35.70774 -82.88747 6195 ft 246 kts 118°
2026-05-09 06:31 35.70048 -82.86868 6082 ft 234 kts 118°
2026-05-09 06:32 35.69380 -82.85139 6018 ft 218 kts 118°
2026-05-09 06:32 35.68757 -82.83511 5995 ft 203 kts 118°
2026-05-09 06:32 35.68177 -82.81979 6016 ft 195 kts 118°
2026-05-09 06:33 35.66946 -82.78751 6047 ft 218 kts 118°
2026-05-09 06:33 35.66300 -82.77058 6041 ft 219 kts 118°
2026-05-09 06:33 35.65668 -82.75368 6027 ft 215 kts 118°
2026-05-09 06:34 35.64446 -82.72097 6026 ft 204 kts 118°
2026-05-09 06:34 35.63865 -82.70518 6031 ft 202 kts 118°
2026-05-09 06:34 35.63288 -82.68939 6042 ft 203 kts 118°
2026-05-09 06:34 35.62696 -82.67325 5932 ft 209 kts 118°
2026-05-09 06:35 35.62107 -82.65719 5685 ft 209 kts 118°
2026-05-09 06:35 35.61520 -82.64109 5422 ft 204 kts 117°
2026-05-09 06:35 35.60917 -82.62537 5204 ft 196 kts 127°
2026-05-09 06:35 35.59926 -82.61572 5177 ft 180 kts 165°
2026-05-09 06:36 35.58757 -82.61074 5097 ft 178 kts 162°
2026-05-09 06:36 35.57614 -82.60537 4908 ft 175 kts 162°
2026-05-09 06:36 35.56483 -82.60019 4693 ft 174 kts 162°
2026-05-09 06:36 35.55336 -82.59501 4474 ft 173 kts 162°
2026-05-09 06:37 35.54236 -82.59003 4222 ft 167 kts 162°
2026-05-09 06:37 35.53146 -82.58512 4007 ft 164 kts 161°
2026-05-09 06:37 35.52067 -82.58025 3815 ft 169 kts 162°
2026-05-09 06:37 35.50948 -82.57521 3581 ft 171 kts 161°
2026-05-09 06:38 35.49835 -82.57018 3327 ft 169 kts 161°
2026-05-09 06:38 35.48724 -82.56521 3149 ft 169 kts 160°
2026-05-09 06:38 35.47614 -82.56025 2933 ft 171 kts 160°
2026-05-09 06:38 35.46486 -82.55521 2669 ft 175 kts 160°
2026-05-09 06:39 35.45710 -82.55171 2502 ft 176 kts 159°
2026-05-09 06:39 35.44567 -82.54643 2253 ft 172 kts 160°
2026-05-09 06:39 35.43518 -82.54172 2150 ft 145 kts 160°
2026-05-09 06:39 35.42994 -82.53936 2142 ft 49 kts 160°
2026-05-09 06:40 35.42721 -82.53805 2135 ft 28 kts 149°
2026-05-09 06:40 35.42762 -82.53695 2136 ft 21 kts 349°
2026-05-09 06:40 35.42901 -82.53747 2139 ft 22 kts 339°
2026-05-09 06:40 35.43058 -82.53815 2143 ft 26 kts 341°
2026-05-09 06:41 35.43249 -82.53892 2148 ft 29 kts 341°
2026-05-09 06:41 35.43345 -82.53910 2150 ft 9 kts 359°
2026-05-09 06:41 35.43405 -82.53907 2151 ft 9 kts 11°
2026-05-09 06:41 35.43437 -82.53862 2152 ft 6 kts 86°
2026-05-09 06:42 35.43437 -82.53855 2152 ft 0 kts 83°